Belen, NM

9:40 AM MDT on May 23, 2018 (GMT -0600)
Belen

Weather History for KE80 - June, 2013

Change the Weather History Date:

Sunday, June 23, 2013

  Actual Average (KABQ) Record (KABQ)
Temperature  
Mean Temperature 78 °F -  
Max Temperature 96 °F 93 °F 101 °F (1980)
Min Temperature 60 °F 61 °F 44 °F (1916)
Cooling Degree Days 13    
Growing Degree Days 28 (Base 50)    
Moisture  
Dew Point 9 °F    
Average Humidity 7    
Maximum Humidity 12    
Minimum Humidity 4    
Precipitation  
Precipitation 0.00 in - - ()
Sea Level Pressure  
Sea Level Pressure 29.98 in    
Wind  
Wind Speed 7 mph (SSW)    
Max Wind Speed 20 mph    
Max Gust Speed 28 mph    
Visibility 10 miles    
Events      
Averages and records for this station are not official NWS values.
T = Trace of Precipitation, MM = Missing Value Source: NWS Daily Summary

Daily Weather History Graph

Daily Weather History Graph

Search for Another Location

Airport or City:

Astronomy

Jun. 23, 2013 Rise Set
Actual Time 5:55 AM MDT 8:23 PM MDT
Civil Twilight 5:25 AM MDT 8:53 PM MDT
Nautical Twilight 4:49 AM MDT 9:29 PM MDT
Astronomical Twilight 4:09 AM MDT 10:10 PM MDT
Moon 8:42 PM MDT 6:13 AM MDT
Length of Visible Light 15h 27m
Length of Day
14h 28m
Full, 100% of the Moon is Illuminated
Jun 23
Full
Jun 29
Last Quarter
Jul 8
New
Jul 15
First Quarter
Jul 22
Full

Hourly Weather History & Observations

Time (MDT) Temp. Dew Point Humidity Pressure Visibility Wind Dir Wind Speed Gust Speed Precip Events Conditions
12:15 AM 71.4 °F 7.3 °F 8% 30.00 in 10.0 mi WSW 9.2 mph - N/A   Clear
12:35 AM 68.0 °F 6.4 °F 9% 30.00 in 10.0 mi WSW 8.1 mph - N/A   Clear
12:55 AM 67.3 °F 6.4 °F 9% 30.01 in 10.0 mi WSW 8.1 mph - N/A   Clear
1:15 AM 70.0 °F 7.0 °F 9% 30.01 in 10.0 mi West 9.2 mph - N/A   Clear
1:35 AM 68.2 °F 6.8 °F 9% 30.01 in 10.0 mi West 8.1 mph - N/A   Clear
1:55 AM 65.5 °F 5.7 °F 9% 30.01 in 10.0 mi WSW 5.8 mph - N/A   Clear
2:15 AM 67.3 °F 7.5 °F 10% 30.02 in 10.0 mi Calm Calm - N/A   Clear
2:35 AM 69.4 °F 7.5 °F 9% 30.02 in 10.0 mi Calm Calm - N/A   Clear
2:55 AM 63.3 °F 6.1 °F 10% 30.02 in 10.0 mi SSW 4.6 mph - N/A   Clear
3:15 AM 64.2 °F 5.7 °F 10% 30.02 in 10.0 mi Calm Calm - N/A   Clear
3:35 AM 64.4 °F 5.7 °F 10% 30.02 in 10.0 mi Calm Calm - N/A   Clear
3:55 AM 64.0 °F 6.3 °F 10% 30.02 in 10.0 mi Calm Calm - N/A   Clear
4:15 AM 62.2 °F 5.9 °F 11% 30.02 in 10.0 mi Calm Calm - N/A   Clear
4:35 AM 61.5 °F 4.8 °F 10% 30.02 in 10.0 mi SSW 3.5 mph - N/A   Clear
4:55 AM 60.4 °F 5.7 °F 11% 30.02 in 10.0 mi SSW 6.9 mph - N/A   Clear
5:15 AM 61.3 °F 6.8 °F 12% 30.03 in 10.0 mi SSW 8.1 mph - N/A   Clear
5:35 AM 61.9 °F 7.2 °F 11% 30.04 in 10.0 mi SSW 10.4 mph - N/A   Clear
5:55 AM 63.3 °F 7.7 °F 11% 30.04 in 10.0 mi SSW 10.4 mph - N/A   Clear
6:15 AM 62.6 °F 6.8 °F 11% 30.04 in 10.0 mi SSW 10.4 mph - N/A   Clear
6:35 AM 65.1 °F 7.2 °F 10% 30.05 in 10.0 mi SW 10.4 mph - N/A   Clear
6:55 AM 67.3 °F 8.4 °F 10% 30.06 in 10.0 mi SSW 3.5 mph - N/A   Clear
7:15 AM 67.8 °F 8.4 °F 10% 30.06 in 10.0 mi Calm Calm - N/A   Clear
7:35 AM 70.0 °F 9.5 °F 10% 30.07 in 10.0 mi Calm Calm - N/A   Clear
7:55 AM 72.0 °F 9.3 °F 9% 30.07 in 10.0 mi Calm Calm - N/A   Clear
8:15 AM 74.3 °F 9.7 °F 8% 30.07 in 10.0 mi Calm Calm - N/A   Clear
8:35 AM 75.6 °F 10.4 °F 8% 30.08 in 10.0 mi Calm Calm - N/A   Clear
8:55 AM 76.8 °F 10.9 °F 8% 30.08 in 10.0 mi Calm Calm - N/A   Clear
9:15 AM 77.9 °F 11.1 °F 8% 30.08 in 10.0 mi Calm Calm - N/A   Clear
9:35 AM 80.1 °F 12.2 °F 8% 30.08 in 10.0 mi Calm Calm - N/A   Clear
9:55 AM 80.8 °F 12.9 °F 8% 30.07 in 10.0 mi East 3.5 mph - N/A   Clear
10:15 AM 81.9 °F 13.6 °F 8% 30.07 in 10.0 mi SE 5.8 mph - N/A   Clear
10:35 AM 82.2 °F 14.2 °F 8% 30.06 in 10.0 mi South 3.5 mph - N/A   Clear
10:55 AM 83.8 °F 15.1 °F 8% 30.06 in 10.0 mi East 6.9 mph - N/A   Clear
11:15 AM 85.1 °F 14.4 °F 7% 30.05 in 10.0 mi East 4.6 mph - N/A   Clear
11:35 AM 86.7 °F 14.2 °F 7% 30.05 in 10.0 mi SSW 4.6 mph - N/A   Clear
11:55 AM 86.9 °F 15.1 °F 7% 30.04 in 10.0 mi SSE 11.5 mph - N/A   Clear
12:15 PM 87.1 °F 14.5 °F 7% 30.03 in 10.0 mi SSE 5.8 mph - N/A   Clear
12:35 PM 88.9 °F 13.6 °F 6% 30.02 in 10.0 mi SSE 4.6 mph - N/A   Clear
12:55 PM 88.3 °F 15.3 °F 7% 30.01 in 10.0 mi NNE 8.1 mph - N/A   Clear
1:15 PM 89.8 °F 12.2 °F 6% 30.00 in 10.0 mi SSE 9.2 mph 18.4 mph N/A   Clear
1:35 PM 91.6 °F 12.0 °F 5% 29.98 in 10.0 mi WNW 16.1 mph 26.5 mph N/A   Clear
1:55 PM 91.9 °F 10.9 °F 5% 29.97 in 10.0 mi South 10.4 mph 17.3 mph N/A   Clear
2:15 PM 92.1 °F 10.9 °F 5% 29.97 in 10.0 mi SE 5.8 mph 19.6 mph N/A   Clear
2:35 PM 93.4 °F 11.3 °F 5% 29.96 in 10.0 mi South 11.5 mph 18.4 mph N/A   Clear
2:55 PM 91.9 °F 12.2 °F 5% 29.95 in 10.0 mi South 11.5 mph 17.3 mph N/A   Clear
3:15 PM 92.3 °F 13.3 °F 5% 29.94 in 10.0 mi East 3.5 mph 17.3 mph N/A   Clear
3:35 PM 94.1 °F 11.1 °F 5% 29.93 in 10.0 mi South 15.0 mph - N/A   Clear
3:55 PM 94.3 °F 11.5 °F 5% 29.93 in 10.0 mi Calm Calm - N/A   Clear
4:15 PM 94.6 °F 12.2 °F 5% 29.91 in 10.0 mi SE 11.5 mph 24.2 mph N/A   Clear
4:35 PM 95.4 °F 11.8 °F 5% 29.90 in 10.0 mi SSW 13.8 mph 18.4 mph N/A   Clear
4:55 PM 95.2 °F 12.6 °F 5% 29.90 in 10.0 mi SSE 19.6 mph 26.5 mph N/A   Clear
5:15 PM 96.1 °F 6.6 °F 4% 29.88 in 10.0 mi South 18.4 mph 27.6 mph N/A   Clear
5:35 PM 94.6 °F 6.4 °F 4% 29.88 in 10.0 mi South 9.2 mph - N/A   Clear
5:55 PM 95.2 °F 3.0 °F 4% 29.87 in 10.0 mi SSW 8.1 mph 18.4 mph N/A   Clear
6:15 PM 95.2 °F 3.9 °F 4% 29.87 in 10.0 mi SW 10.4 mph 23.0 mph N/A   Clear
6:35 PM 95.0 °F 4.6 °F 4% 29.87 in 10.0 mi SW 16.1 mph 25.3 mph N/A   Clear
6:55 PM 94.5 °F 4.6 °F 4% 29.87 in 10.0 mi SW 17.3 mph 26.5 mph N/A   Clear
7:15 PM 93.7 °F 4.5 °F 4% 29.87 in 10.0 mi South 15.0 mph 25.3 mph N/A   Clear
7:35 PM 92.7 °F 4.1 °F 4% 29.88 in 10.0 mi South 9.2 mph 12.7 mph N/A   Clear
7:55 PM 91.6 °F 1.2 °F 4% 29.88 in 10.0 mi WSW 13.8 mph 23.0 mph N/A   Clear
8:15 PM 89.6 °F 4.1 °F 4% 29.88 in 10.0 mi WSW 16.1 mph 21.9 mph N/A   Clear
8:35 PM 87.8 °F 5.2 °F 4% 29.89 in 10.0 mi SW 13.8 mph - N/A   Clear
8:55 PM 86.4 °F 6.3 °F 5% 29.89 in 10.0 mi SW 16.1 mph 21.9 mph N/A   Clear
9:15 PM 84.6 °F 7.9 °F 5% 29.90 in 10.0 mi SSW 10.4 mph - N/A   Clear
9:35 PM 84.2 °F 10.0 °F 6% 29.91 in 10.0 mi SSW 12.7 mph - N/A   Clear
9:55 PM 83.3 °F 12.0 °F 7% 29.92 in 10.0 mi SW 12.7 mph - N/A   Clear
10:15 PM 83.3 °F 12.0 °F 7% 29.93 in 10.0 mi SW 15.0 mph - N/A   Clear
10:35 PM 82.2 °F 12.2 °F 7% 29.94 in 10.0 mi SW 12.7 mph - N/A   Clear
10:55 PM 81.1 °F 11.8 °F 7% 29.94 in 10.0 mi SW 12.7 mph - N/A   Clear
11:15 PM 79.2 °F 10.9 °F 7% 29.95 in 10.0 mi WSW 10.4 mph - N/A   Clear
11:35 PM 77.9 °F 10.8 °F 8% 29.95 in 10.0 mi WSW 10.4 mph - N/A   Clear
11:55 PM 76.1 °F 10.4 °F 8% 29.96 in 10.0 mi WSW 9.2 mph - N/A   Clear